Date String (YYYY-MM-DD hh:mm:ss) UTC,Instrument flags,absolute air pressure of the measurement (hPa),sample flow rate (lpm),inlet stack bypass flow (lpm),air temperature of the measurement (°C),ambient temperature measured by the external sensor (°C),aerosol sample conditioner tube jacket temperature (°C),OPC LED temperature (°C),internal box temperature (°C),relative humidity of the measurement (%),span deviation,mass concentration of particles derived from Lorenz-Mie calculation of OPC scattering (μg/m³),mass concentration of particles derived from Lorenz-Mie calculation of OPC scattering (μg/m³),mass concentration of particles derived from Lorenz-Mie calculation of OPC scattering (μg/m³)
DateTimeUTC,F1_M11,P_M11,Q1_M11,Q2_M11,T1_M11,T2_M11,T3_M11,T4_M11,T5_M11,U1_M11,ZSPAN_M11,X2_M11,X0_M11,X1_M11
2023-09-19 07:00:00,SystemResetWarning,0827.7,5.01,000.00,028.3,026.9,000.0,036.6,030.0,16.9,0000.0,0001.18,0001.64,0001.01
2023-09-19 07:01:00,SystemResetWarning,0827.7,5.00,000.00,028.3,026.9,000.0,036.6,030.0,16.9,0000.0,0001.18,0001.63,0001.01
2023-09-19 07:02:00,SystemResetWarning,0827.7,4.99,000.00,028.3,026.9,000.0,036.6,030.0,17.0,0000.0,0001.19,0001.65,0001.01
2023-09-19 07:03:00,SystemResetWarning,0827.7,5.00,000.00,028.3,026.9,000.0,036.6,030.0,17.0,0000.0,0001.19,0001.62,0001.02
2023-09-19 07:04:00,SystemResetWarning,0827.7,5.01,000.00,028.4,027.0,000.0,036.7,030.0,17.0,0000.0,0001.20,0001.61,0001.03
2023-09-19 07:05:00,SystemResetWarning,0827.7,5.01,000.00,028.4,027.0,000.0,036.7,030.0,17.1,0000.0,0001.21,0001.69,0001.02
2023-09-19 07:06:00,SystemResetWarning,0827.7,5.01,000.00,028.4,027.0,000.0,036.7,030.0,17.0,0000.0,0001.22,0001.84,0001.02
2023-09-19 07:07:00,SystemResetWarning,0827.7,4.99,000.00,028.4,027.0,000.0,036.7,030.0,17.0,0000.0,0001.21,0001.87,0001.01
2023-09-19 07:08:00,SystemResetWarning,0827.7,5.00,000.00,028.4,027.0,000.0,036.7,030.1,17.1,0000.0,0001.21,0002.66,0001.02
2023-09-19 07:09:00,SystemResetWarning,0827.8,5.00,000.00,028.4,027.0,000.0,036.7,030.1,17.1,0000.0,0001.21,0002.67,0001.02
2023-09-19 07:10:00,SystemResetWarning,0827.7,4.99,000.00,028.4,027.0,000.0,036.7,030.1,17.2,0000.0,0001.22,0002.65,0001.02
2023-09-19 07:11:00,SystemResetWarning,0827.7,5.01,000.00,028.4,027.0,000.0,036.7,030.1,17.0,0000.0,0001.21,0002.62,0001.02
2023-09-19 07:12:00,SystemResetWarning,0827.7,5.02,000.00,028.5,027.0,000.0,036.7,030.1,17.1,0000.0,0001.24,0002.73,0001.02
2023-09-19 07:13:00,SystemResetWarning,0827.7,5.00,000.00,028.5,027.1,000.0,036.8,030.1,17.1,0000.0,0001.26,0002.83,0001.01
2023-09-19 07:14:00,SystemResetWarning,0827.7,5.00,000.00,028.5,027.1,000.0,036.8,030.1,17.0,0000.0,0001.29,0002.90,0001.00
2023-09-19 07:15:00,SystemResetWarning,0827.7,4.99,000.00,028.5,027.1,000.0,036.8,030.1,17.1,0000.0,0001.29,0002.95,0001.00
2023-09-19 07:16:00,SystemResetWarning,0827.7,4.99,000.00,028.5,027.1,000.0,036.8,030.1,17.1,0000.0,0001.30,0003.87,0001.00
2023-09-19 07:17:00,SystemResetWarning,0827.7,5.00,000.00,028.5,027.1,000.0,036.8,030.1,17.0,0000.0,0001.26,0003.68,0001.00
2023-09-19 07:18:00,SystemResetWarning,0827.7,5.00,000.00,028.5,027.1,000.0,036.8,030.2,17.0,0000.0,0001.26,0003.65,0001.00
2023-09-19 07:19:00,SystemResetWarning,0827.7,5.01,000.00,028.5,027.1,000.0,036.8,030.2,17.1,0000.0,0001.26,0002.83,0001.00
2023-09-19 07:20:00,SystemResetWarning,0827.6,4.99,000.00,028.5,027.1,000.0,036.8,030.2,17.0,0000.0,0001.27,0002.86,0001.00
2023-09-19 07:21:00,SystemResetWarning,0827.6,5.00,000.00,028.5,027.1,000.0,036.8,030.2,17.0,0000.0,0001.25,0002.83,0000.99
2023-09-19 07:22:00,SystemResetWarning,0827.6,5.01,000.00,028.6,027.1,000.0,036.8,030.2,17.0,0000.0,0001.26,0002.85,0000.99
2023-09-19 07:23:00,SystemResetWarning,0827.7,5.01,000.00,028.6,027.1,000.0,036.8,030.2,17.0,0000.0,0001.23,0002.76,0001.00
2023-09-19 07:24:00,SystemResetWarning,0827.6,4.99,000.00,028.6,027.2,000.0,036.8,030.2,17.0,0000.0,0001.21,0002.68,0001.00
2023-09-19 07:25:00,SystemResetWarning,0827.6,4.99,000.00,028.6,027.2,000.0,036.8,030.2,16.9,0000.0,0001.18,0002.61,0001.00
2023-09-19 07:26:00,SystemResetWarning,0827.6,4.99,000.00,028.6,027.1,000.0,036.9,030.2,17.0,0000.0,0001.16,0002.57,0001.00
2023-09-19 07:27:00,SystemResetWarning,0827.6,5.01,000.00,028.6,027.1,000.0,036.9,030.2,17.0,0000.0,0001.15,0001.60,0001.01
2023-09-19 07:28:00,SystemResetWarning,0827.7,5.01,000.00,028.6,027.2,000.0,036.9,030.2,16.9,0000.0,0001.23,0001.79,0001.03
2023-09-19 07:29:00,SystemResetWarning,0827.7,5.01,000.00,028.6,027.2,000.0,036.9,030.3,16.9,0000.0,0001.26,0001.86,0001.04
2023-09-19 07:30:00,SystemResetWarning,0827.7,5.01,000.00,028.6,027.2,000.0,036.9,030.2,17.0,0000.0,0001.30,0001.96,0001.04
2023-09-19 07:31:00,SystemResetWarning,0827.7,5.00,000.00,028.6,027.2,000.0,036.9,030.2,17.0,0000.0,0001.33,0002.00,0001.05
2023-09-19 07:32:00,SystemResetWarning,0827.7,4.98,000.00,028.6,027.2,000.0,036.9,030.3,17.1,0000.0,0001.38,0002.54,0001.05
2023-09-19 07:33:00,SystemResetWarning,0827.7,5.00,000.00,028.6,027.2,000.0,036.9,030.3,16.9,0000.0,0001.38,0002.79,0001.06
2023-09-19 07:34:00,SystemResetWarning,0827.7,5.00,000.00,028.6,027.2,000.0,036.9,030.3,16.9,0000.0,0001.41,0002.84,0001.07
2023-09-19 07:35:00,SystemResetWarning,0827.7,5.01,000.00,028.6,027.2,000.0,036.9,030.3,16.8,0000.0,0001.43,0002.84,0001.07
2023-09-19 07:36:00,SystemResetWarning,0827.7,5.00,000.00,028.7,027.2,000.0,037.0,030.3,16.8,0000.0,0001.49,0002.95,0001.08
2023-09-19 07:37:00,SystemResetWarning,0827.7,5.00,000.00,028.7,027.2,000.0,037.0,030.3,16.8,0000.0,0001.54,0003.08,0001.09
2023-09-19 07:38:00,SystemResetWarning,0827.7,5.00,000.00,028.7,027.2,000.0,037.0,030.3,16.8,0000.0,0001.55,0003.13,0001.09
2023-09-19 07:39:00,SystemResetWarning,0827.7,5.00,000.00,028.7,027.2,000.0,037.0,030.3,16.8,0000.0,0001.50,0002.96,0001.08
2023-09-19 07:40:00,SystemResetWarning,0827.7,5.00,000.00,028.7,027.2,000.0,037.0,030.3,16.8,0000.0,0001.51,0002.93,0001.09
2023-09-19 07:41:00,SystemResetWarning,0827.7,5.00,000.00,028.7,027.3,000.0,037.0,030.3,16.7,0000.0,0001.50,0002.94,0001.10
2023-09-19 07:42:00,SystemResetWarning,0827.7,5.00,000.00,028.7,027.3,000.0,037.0,030.3,16.7,0000.0,0001.48,0003.84,0001.09
2023-09-19 07:43:00,SystemResetWarning,0827.7,5.01,000.00,028.7,027.3,000.0,037.0,030.3,16.8,0000.0,0001.45,0003.53,0001.09
2023-09-19 07:44:00,SystemResetWarning,0827.8,5.01,000.00,028.7,027.2,000.0,037.0,030.3,16.9,0000.0,0001.46,0003.29,0001.08
2023-09-19 07:45:00,SystemResetWarning,0827.7,4.98,000.00,028.7,025.9,000.0,037.0,029.9,16.8,0000.0,0001.45,0003.62,0001.08
2023-09-19 07:46:00,SystemResetWarning,0827.7,5.01,000.00,028.5,024.6,000.0,036.9,029.6,16.9,0000.0,0001.43,0003.62,0001.07
2023-09-19 07:47:00,SystemResetWarning,0827.7,5.01,000.00,028.4,024.6,000.0,036.9,029.6,17.0,0000.0,0001.41,0003.63,0001.06
2023-09-19 07:48:00,SystemResetWarning,0827.7,5.00,000.00,028.3,024.8,000.0,036.8,029.5,17.1,0000.0,0001.37,0003.91,0001.05
2023-09-19 07:49:00,SystemResetWarning,0827.7,5.00,000.00,028.3,025.1,000.0,036.8,029.5,17.2,0000.0,0001.36,0004.09,0001.05
2023-09-19 07:50:00,SystemResetWarning,0827.7,5.00,000.00,028.2,025.4,000.0,036.8,029.6,17.4,0000.0,0001.35,0004.06,0001.04
2023-09-19 07:51:00,SystemResetWarning,0827.7,5.00,000.00,028.2,025.6,000.0,036.8,029.6,17.3,0000.0,0001.33,0004.03,0001.03
2023-09-19 07:52:00,SystemResetWarning,0827.7,5.00,000.00,028.2,025.8,000.0,036.7,029.6,17.4,0000.0,0001.33,0004.00,0001.02
2023-09-19 07:53:00,SystemResetWarning,0827.7,4.99,000.00,028.2,026.0,000.0,036.7,029.7,17.4,0000.0,0001.31,0003.00,0001.02
2023-09-19 07:54:00,SystemResetWarning,0827.6,5.00,000.00,028.2,026.2,000.0,036.7,029.7,17.3,0000.0,0001.30,0002.93,0001.03
2023-09-19 07:55:00,SystemResetWarning,0827.7,5.00,000.00,028.2,026.3,000.0,036.7,029.8,17.1,0000.0,0001.31,0002.82,0001.04
2023-09-19 07:56:00,SystemResetWarning,0827.6,5.00,000.00,028.2,026.4,000.0,036.7,029.8,17.2,0000.0,0001.31,0002.47,0001.04
2023-09-19 07:57:00,SystemResetWarning,0827.7,5.00,000.00,028.2,026.5,000.0,036.6,029.8,17.2,0000.0,0001.29,0002.43,0001.03
2023-09-19 07:58:00,SystemResetWarning,0827.7,5.00,000.00,028.2,026.5,000.0,036.6,029.8,17.2,0000.0,0001.27,0002.32,0001.04
2023-09-19 07:59:00,SystemResetWarning,0827.7,5.00,000.00,028.2,026.6,000.0,036.6,029.8,17.2,0000.0,0001.28,0002.03,0001.04
